Location: Grand Mesa Observatory
(38.9638°N, 108.2379°W)
Time: 16:25:54
(UTC-06:00)

Tiangong 2 - Visible Passes

Search period start: 23 March 2019 00:00
Search period end: 02 April 2019 00:00
Orbit: 380 x 390 km, 42.8° (Epoch: 23 March)

Date Brightness Start Highest point End Pass type
(mag) Time Alt. Az. Time Alt. Az. Time Alt. Az.
23 Mar 2.2 05:27:47 37° SE 05:27:47 37° SE 05:29:55 10° SE visible
24 Mar 2.7 06:03:51 19° SSW 06:03:51 19° SSW 06:06:08 10° SSE visible
29 Mar 2.1 20:50:19 10° SSW 20:52:46 28° SSE 20:52:46 28° SSE visible
30 Mar 2.5 21:27:01 10° WSW 21:28:57 35° WSW 21:28:57 35° WSW visible
31 Mar 1.2 20:27:34 10° SW 20:30:37 52° SSE 20:32:41 18° E visible
31 Mar 4.2 22:04:23 10° W 22:04:55 14° W 22:04:55 14° W visible
01 Apr 1.4 21:04:41 10° W 21:07:47 60° NNW 21:08:30 44° NE visible
